Time,TemperatureF,DewpointF,PressureIn,WindDirection,WindDirectionDegrees,WindSpeedMPH,WindSpeedGustMPH,Humidity,HourlyPrecipIn,Conditions,Clouds,dailyrainin,SoftwareType,DateUTC
2013-04-08 00:03:00,58.0,-99.9,30.17,SSW,196,5.0,6.0,-999,-99.99,,,-99.99,,2013-04-08 04:03:00,
2013-04-08 00:13:00,58.0,-99.9,30.17,SSW,199,5.0,5.0,-999,-99.99,,,-99.99,,2013-04-08 04:13:00,
2013-04-08 00:23:00,58.0,-99.9,30.17,SSW,202,5.0,6.0,-999,-99.99,,,-99.99,,2013-04-08 04:23:00,
2013-04-08 00:34:00,58.0,-99.9,30.17,SSW,211,5.0,6.0,-999,-99.99,,,-99.99,,2013-04-08 04:34:00,
2013-04-08 00:45:00,58.0,-99.9,30.16,SSW,195,6.0,7.0,-999,-99.99,,,-99.99,,2013-04-08 04:45:00,
2013-04-08 00:53:00,58.0,-99.9,30.16,SSW,196,6.0,7.0,-999,-99.99,,,-99.99,,2013-04-08 04:53:00,
2013-04-08 01:03:00,58.0,-99.9,30.16,SSW,197,6.0,7.0,-999,-99.99,,,-99.99,,2013-04-08 05:03:00,
2013-04-08 01:12:00,58.0,-99.9,30.16,SSW,195,6.0,7.0,-999,-99.99,,,-99.99,,2013-04-08 05:12:00,
2013-04-08 01:22:00,58.0,-99.9,30.16,SSW,195,6.0,7.0,-999,-99.99,,,-99.99,,2013-04-08 05:22:00,
2013-04-08 01:32:00,58.0,-99.9,30.16,SSW,196,6.0,7.0,-999,-99.99,,,-99.99,,2013-04-08 05:32:00,
2013-04-08 01:42:00,58.0,-99.9,30.15,SSW,194,6.0,6.0,-999,-99.99,,,-99.99,,2013-04-08 05:42:00,
2013-04-08 01:53:00,58.0,-99.9,30.15,SSW,193,6.0,6.0,-999,-99.99,,,-99.99,,2013-04-08 05:53:00,
2013-04-08 02:02:00,57.0,-99.9,30.15,SSW,209,5.0,5.0,-999,-99.99,,,-99.99,,2013-04-08 06:02:00,
2013-04-08 02:12:00,57.0,-99.9,30.14,SSW,208,6.0,6.0,-999,-99.99,,,-99.99,,2013-04-08 06:12:00,
2013-04-08 02:22:00,57.0,-99.9,30.14,SSW,207,6.0,6.0,-999,-99.99,,,-99.99,,2013-04-08 06:22:00,
2013-04-08 02:32:00,58.0,-99.9,30.14,SSW,203,7.0,8.0,-999,-99.99,,,-99.99,,2013-04-08 06:32:00,
2013-04-08 02:43:00,58.0,-99.9,30.13,SSW,199,8.0,9.0,-999,-99.99,,,-99.99,,2013-04-08 06:43:00,
2013-04-08 02:53:00,57.0,-99.9,30.13,SSW,208,6.0,7.0,-999,-99.99,,,-99.99,,2013-04-08 06:53:00,
2013-04-08 03:02:00,57.0,-99.9,30.12,SSW,209,6.0,6.0,-999,-99.99,,,-99.99,,2013-04-08 07:02:00,
2013-04-08 03:12:00,57.0,-99.9,30.12,SSW,211,7.0,9.0,-999,-99.99,,,-99.99,,2013-04-08 07:12:00,
2013-04-08 03:22:00,57.0,-99.9,30.12,SSW,211,7.0,9.0,-999,-99.99,,,-99.99,,2013-04-08 07:22:00,
2013-04-08 03:33:00,57.0,-99.9,30.12,SSW,211,7.0,9.0,-999,-99.99,,,-99.99,,2013-04-08 07:33:00,
2013-04-08 03:42:00,58.0,-99.9,30.12,SSW,205,8.0,9.0,-999,-99.99,,,-99.99,,2013-04-08 07:42:00,
2013-04-08 03:53:00,58.0,-99.9,30.11,SSW,213,9.0,10.0,-999,-99.99,,,-99.99,,2013-04-08 07:53:00,
2013-04-08 04:02:00,58.0,-99.9,30.11,SW,228,6.0,8.0,-999,-99.99,,,-99.99,,2013-04-08 08:02:00,
2013-04-08 04:12:00,58.0,-99.9,30.11,SW,228,6.0,8.0,-999,-99.99,,,-99.99,,2013-04-08 08:12:00,
2013-04-08 04:22:00,58.0,-99.9,30.11,SW,228,6.0,8.0,-999,-99.99,,,-99.99,,2013-04-08 08:22:00,
2013-04-08 04:33:00,58.0,-99.9,30.11,SW,228,6.0,8.0,-999,-99.99,,,-99.99,,2013-04-08 08:33:00,
2013-04-08 04:43:00,59.0,-99.9,30.12,SW,223,7.0,8.0,-999,-99.99,,,-99.99,,2013-04-08 08:43:00,
2013-04-08 04:52:00,59.0,-99.9,30.12,SW,221,9.0,9.0,-999,-99.99,,,-99.99,,2013-04-08 08:52:00,
2013-04-08 05:03:00,59.0,-99.9,30.12,SW,214,10.0,10.0,-999,-99.99,,,-99.99,,2013-04-08 09:03:00,
2013-04-08 05:12:00,58.0,-99.9,30.12,SSW,212,9.0,9.0,-999,-99.99,,,-99.99,,2013-04-08 09:12:00,
2013-04-08 05:23:00,58.0,-99.9,30.12,SW,216,8.0,9.0,-999,-99.99,,,-99.99,,2013-04-08 09:23:00,
2013-04-08 05:34:00,59.0,-99.9,30.13,WSW,241,5.0,6.0,-999,-99.99,,,-99.99,,2013-04-08 09:34:00,
2013-04-08 05:43:00,58.0,-99.9,30.13,WSW,237,3.0,4.0,-999,-99.99,,,-99.99,,2013-04-08 09:43:00,
2013-04-08 05:53:00,58.0,-99.9,30.13,SW,223,3.0,4.0,-999,-99.99,,,-99.99,,2013-04-08 09:53:00,
2013-04-08 06:03:00,58.0,-99.9,30.13,SW,224,4.0,4.0,-999,-99.99,,,-99.99,,2013-04-08 10:03:00,
2013-04-08 06:13:00,58.0,-99.9,30.13,SW,221,4.0,5.0,-999,-99.99,,,-99.99,,2013-04-08 10:13:00,
2013-04-08 06:23:00,58.0,-99.9,30.14,WSW,242,3.0,4.0,-999,-99.99,,,-99.99,,2013-04-08 10:23:00,
2013-04-08 06:33:00,58.0,-99.9,30.14,WSW,256,2.0,3.0,-999,-99.99,,,-99.99,,2013-04-08 10:33:00,
2013-04-08 06:43:00,58.0,-99.9,30.15,West,275,2.0,2.0,-999,-99.99,,,-99.99,,2013-04-08 10:43:00,
2013-04-08 06:53:00,57.0,-99.9,30.15,WNW,282,2.0,2.0,-999,-99.99,,,-99.99,,2013-04-08 10:53:00,
2013-04-08 07:03:00,58.0,-99.9,30.15,West,280,2.0,2.0,-999,-99.99,,,-99.99,,2013-04-08 11:03:00,
2013-04-08 07:12:00,58.0,-99.9,30.16,West,267,2.0,2.0,-999,-99.99,,,-99.99,,2013-04-08 11:12:00,
2013-04-08 07:23:00,58.0,-99.9,30.16,West,262,0.0,1.0,-999,-99.99,,,-99.99,,2013-04-08 11:23:00,
2013-04-08 07:33:00,57.0,-99.9,30.16,North,-999,-999.0,-999.0,-999,-99.99,,,-99.99,,2013-04-08 11:33:00,
2013-04-08 07:43:00,58.0,-99.9,30.17,North,-999,-999.0,-999.0,-999,-99.99,,,-99.99,,2013-04-08 11:43:00,
2013-04-08 07:53:00,58.0,-99.9,30.17,North,-999,-999.0,-999.0,-999,-99.99,,,-99.99,,2013-04-08 11:53:00,
2013-04-08 08:04:00,59.0,-99.9,30.17,North,-999,-999.0,-999.0,-999,-99.99,,,-99.99,,2013-04-08 12:04:00,
2013-04-08 08:12:00,62.0,-99.9,30.18,North,-999,-999.0,-999.0,-999,-99.99,,,-99.99,,2013-04-08 12:12:00,
2013-04-08 08:23:00,64.0,-99.9,30.18,North,-999,-999.0,-999.0,-999,-99.99,,,-99.99,,2013-04-08 12:23:00,
2013-04-08 08:33:00,64.0,-99.9,30.18,North,-999,-999.0,-999.0,-999,-99.99,,,-99.99,,2013-04-08 12:33:00,
2013-04-08 08:43:00,64.0,-99.9,30.18,North,-999,-999.0,-999.0,-999,-99.99,,,-99.99,,2013-04-08 12:43:00,
2013-04-08 08:53:00,66.0,-99.9,30.19,North,-999,-999.0,-999.0,-999,-99.99,,,-99.99,,2013-04-08 12:53:00,
2013-04-08 09:03:00,66.0,-99.9,30.19,South,182,1.0,2.0,-999,-99.99,,,-99.99,,2013-04-08 13:03:00,
2013-04-08 09:12:00,67.0,-99.9,30.19,North,-999,-999.0,-999.0,-999,-99.99,,,-99.99,,2013-04-08 13:12:00,
2013-04-08 09:22:00,66.0,-99.9,30.19,North,-999,-999.0,-999.0,-999,-99.99,,,-99.99,,2013-04-08 13:22:00,
2013-04-08 09:33:00,62.0,-99.9,30.19,SE,144,1.0,2.0,-999,-99.99,,,-99.99,,2013-04-08 13:33:00,
2013-04-08 09:43:00,62.0,-99.9,30.19,SSE,165,1.0,1.0,-999,-99.99,,,-99.99,,2013-04-08 13:43:00,
2013-04-08 09:53:00,61.0,-99.9,30.19,SSE,149,2.0,2.0,-999,-99.99,,,-99.99,,2013-04-08 13:53:00,
2013-04-08 10:03:00,60.0,-99.9,30.19,SSE,151,2.0,2.0,-999,-99.99,,,-99.99,,2013-04-08 14:03:00,
2013-04-08 10:12:00,60.0,-99.9,30.19,SSE,161,3.0,3.0,-999,-99.99,,,-99.99,,2013-04-08 14:12:00,
2013-04-08 10:22:00,60.0,-99.9,30.19,SSE,166,3.0,4.0,-999,-99.99,,,-99.99,,2013-04-08 14:22:00,
2013-04-08 10:33:00,61.0,-99.9,30.19,SE,141,4.0,4.0,-999,-99.99,,,-99.99,,2013-04-08 14:33:00,
2013-04-08 10:43:00,61.0,-99.9,30.19,SE,145,4.0,4.0,-999,-99.99,,,-99.99,,2013-04-08 14:43:00,
2013-04-08 10:53:00,61.0,-99.9,30.19,SE,141,4.0,4.0,-999,-99.99,,,-99.99,,2013-04-08 14:53:00,
2013-04-08 11:02:00,62.0,-99.9,30.19,SE,138,4.0,4.0,-999,-99.99,,,-99.99,,2013-04-08 15:02:00,
2013-04-08 11:12:00,62.0,-99.9,30.19,SE,137,5.0,5.0,-999,-99.99,,,-99.99,,2013-04-08 15:12:00,
2013-04-08 11:22:00,61.0,-99.9,30.19,SE,145,6.0,7.0,-999,-99.99,,,-99.99,,2013-04-08 15:22:00,
2013-04-08 11:35:00,61.0,-99.9,30.19,SSE,157,6.0,7.0,-999,-99.99,,,-99.99,,2013-04-08 15:35:00,
2013-04-08 11:43:00,62.0,-99.9,30.19,South,171,7.0,9.0,-999,-99.99,,,-99.99,,2013-04-08 15:43:00,
2013-04-08 11:53:00,61.0,-99.9,30.19,South,169,9.0,10.0,-999,-99.99,,,-99.99,,2013-04-08 15:53:00,
2013-04-08 12:03:00,62.0,-99.9,30.18,South,175,13.0,14.0,-999,-99.99,,,-99.99,,2013-04-08 16:03:00,
2013-04-08 12:13:00,62.0,-99.9,30.18,South,176,13.0,15.0,-999,-99.99,,,-99.99,,2013-04-08 16:13:00,
2013-04-08 12:23:00,63.0,-99.9,30.18,South,180,15.0,16.0,-999,-99.99,,,-99.99,,2013-04-08 16:23:00,
2013-04-08 12:33:00,63.0,-99.9,30.18,South,180,15.0,16.0,-999,-99.99,,,-99.99,,2013-04-08 16:33:00,
2013-04-08 12:42:00,63.0,-99.9,30.18,South,179,15.0,17.0,-999,-99.99,,,-99.99,,2013-04-08 16:42:00,
2013-04-08 12:54:00,63.0,-99.9,30.17,South,179,17.0,18.0,-999,-99.99,,,-99.99,,2013-04-08 16:54:00,
2013-04-08 13:03:00,63.0,-99.9,30.17,South,177,17.0,19.0,-999,-99.99,,,-99.99,,2013-04-08 17:03:00,
2013-04-08 13:12:00,63.0,-99.9,30.16,South,177,18.0,19.0,-999,-99.99,,,-99.99,,2013-04-08 17:12:00,
2013-04-08 13:23:00,62.0,-99.9,30.16,South,174,18.0,20.0,-999,-99.99,,,-99.99,,2013-04-08 17:23:00,
2013-04-08 13:33:00,62.0,-99.9,30.16,South,175,17.0,19.0,-999,-99.99,,,-99.99,,2013-04-08 17:33:00,
2013-04-08 13:45:00,62.0,-99.9,30.16,South,174,18.0,20.0,-999,-99.99,,,-99.99,,2013-04-08 17:45:00,
2013-04-08 13:53:00,62.0,-99.9,30.16,South,174,18.0,19.0,-999,-99.99,,,-99.99,,2013-04-08 17:53:00,
2013-04-08 14:02:00,62.0,-99.9,30.15,South,175,18.0,19.0,-999,-99.99,,,-99.99,,2013-04-08 18:02:00,
2013-04-08 14:12:00,62.0,-99.9,30.15,South,175,19.0,20.0,-999,-99.99,,,-99.99,,2013-04-08 18:12:00,
2013-04-08 14:23:00,63.0,-99.9,30.15,South,175,20.0,21.0,-999,-99.99,,,-99.99,,2013-04-08 18:23:00,
2013-04-08 14:32:00,62.0,-99.9,30.14,South,174,19.0,21.0,-999,-99.99,,,-99.99,,2013-04-08 18:32:00,
2013-04-08 14:43:00,63.0,-99.9,30.14,South,179,20.0,21.0,-999,-99.99,,,-99.99,,2013-04-08 18:43:00,
2013-04-08 14:53:00,63.0,-99.9,30.14,South,180,20.0,22.0,-999,-99.99,,,-99.99,,2013-04-08 18:53:00,
2013-04-08 15:03:00,63.0,-99.9,30.14,South,179,21.0,22.0,-999,-99.99,,,-99.99,,2013-04-08 19:03:00,
2013-04-08 15:13:00,62.0,-99.9,30.14,South,174,19.0,21.0,-999,-99.99,,,-99.99,,2013-04-08 19:13:00,
2013-04-08 15:23:00,62.0,-99.9,30.13,South,174,20.0,21.0,-999,-99.99,,,-99.99,,2013-04-08 19:23:00,
2013-04-08 15:34:00,62.0,-99.9,30.13,South,175,19.0,20.0,-999,-99.99,,,-99.99,,2013-04-08 19:34:00,
2013-04-08 15:43:00,62.0,-99.9,30.12,South,175,19.0,21.0,-999,-99.99,,,-99.99,,2013-04-08 19:43:00,
2013-04-08 15:53:00,63.0,-99.9,30.12,South,175,19.0,21.0,-999,-99.99,,,-99.99,,2013-04-08 19:53:00,
2013-04-08 16:02:00,63.0,-99.9,30.12,South,175,20.0,21.0,-999,-99.99,,,-99.99,,2013-04-08 20:02:00,
2013-04-08 16:12:00,63.0,-99.9,30.11,South,175,21.0,21.0,-999,-99.99,,,-99.99,,2013-04-08 20:12:00,
2013-04-08 16:23:00,62.0,-99.9,30.11,South,174,18.0,19.0,-999,-99.99,,,-99.99,,2013-04-08 20:23:00,
2013-04-08 16:33:00,62.0,-99.9,30.12,South,171,17.0,19.0,-999,-99.99,,,-99.99,,2013-04-08 20:33:00,
2013-04-08 16:43:00,63.0,-99.9,30.12,South,176,18.0,20.0,-999,-99.99,,,-99.99,,2013-04-08 20:43:00,
2013-04-08 16:53:00,63.0,-99.9,30.12,South,175,19.0,20.0,-999,-99.99,,,-99.99,,2013-04-08 20:53:00,
2013-04-08 17:02:00,63.0,-99.9,30.11,South,178,18.0,19.0,-999,-99.99,,,-99.99,,2013-04-08 21:02:00,
2013-04-08 17:12:00,64.0,-99.9,30.11,South,184,18.0,19.0,-999,-99.99,,,-99.99,,2013-04-08 21:12:00,
2013-04-08 17:22:00,64.0,-99.9,30.11,South,183,18.0,19.0,-999,-99.99,,,-99.99,,2013-04-08 21:22:00,
2013-04-08 17:33:00,63.0,-99.9,30.11,South,182,17.0,18.0,-999,-99.99,,,-99.99,,2013-04-08 21:33:00,
2013-04-08 17:43:00,63.0,-99.9,30.11,South,184,15.0,16.0,-999,-99.99,,,-99.99,,2013-04-08 21:43:00,
2013-04-08 17:53:00,63.0,-99.9,30.11,South,185,16.0,18.0,-999,-99.99,,,-99.99,,2013-04-08 21:53:00,
2013-04-08 18:03:00,63.0,-99.9,30.11,South,185,15.0,17.0,-999,-99.99,,,-99.99,,2013-04-08 22:03:00,
2013-04-08 18:23:00,63.0,-99.9,30.12,South,183,17.0,18.0,-999,-99.99,,,-99.99,,2013-04-08 22:23:00,
2013-04-08 18:32:00,63.0,-99.9,30.12,South,183,17.0,18.0,-999,-99.99,,,-99.99,,2013-04-08 22:32:00,
2013-04-08 18:44:00,63.0,-99.9,30.12,South,186,15.0,17.0,-999,-99.99,,,-99.99,,2013-04-08 22:44:00,
2013-04-08 18:53:00,63.0,-99.9,30.12,South,188,14.0,16.0,-999,-99.99,,,-99.99,,2013-04-08 22:53:00,
2013-04-08 19:03:00,62.0,-99.9,30.12,South,186,15.0,16.0,-999,-99.99,,,-99.99,,2013-04-08 23:03:00,
2013-04-08 19:13:00,62.0,-99.9,30.12,South,188,15.0,16.0,-999,-99.99,,,-99.99,,2013-04-08 23:13:00,
2013-04-08 19:22:00,62.0,-99.9,30.12,South,188,15.0,16.0,-999,-99.99,,,-99.99,,2013-04-08 23:22:00,
2013-04-08 19:32:00,62.0,-99.9,30.13,SSW,207,11.0,12.0,-999,-99.99,,,-99.99,,2013-04-08 23:32:00,
2013-04-08 19:43:00,62.0,-99.9,30.13,SSW,207,10.0,11.0,-999,-99.99,,,-99.99,,2013-04-08 23:43:00,
2013-04-08 19:52:00,62.0,-99.9,30.13,SW,214,11.0,11.0,-999,-99.99,,,-99.99,,2013-04-08 23:52:00,
2013-04-08 20:02:00,63.0,-99.9,30.13,SW,216,11.0,12.0,-999,-99.99,,,-99.99,,2013-04-09 00:02:00,
2013-04-08 20:13:00,64.0,-99.9,30.13,SW,219,11.0,13.0,-999,-99.99,,,-99.99,,2013-04-09 00:13:00,
2013-04-08 20:23:00,63.0,-99.9,30.13,SW,218,12.0,15.0,-999,-99.99,,,-99.99,,2013-04-09 00:23:00,
2013-04-08 20:32:00,63.0,-99.9,30.13,SW,219,13.0,14.0,-999,-99.99,,,-99.99,,2013-04-09 00:32:00,
2013-04-08 20:42:00,63.0,-99.9,30.13,SW,218,12.0,13.0,-999,-99.99,,,-99.99,,2013-04-09 00:42:00,
2013-04-08 20:52:00,63.0,-99.9,30.13,SW,219,12.0,15.0,-999,-99.99,,,-99.99,,2013-04-09 00:52:00,
2013-04-08 21:03:00,63.0,-99.9,30.14,SW,216,13.0,16.0,-999,-99.99,,,-99.99,,2013-04-09 01:03:00,
2013-04-08 21:12:00,62.0,-99.9,30.14,SW,217,14.0,15.0,-999,-99.99,,,-99.99,,2013-04-09 01:12:00,
2013-04-08 21:22:00,62.0,-99.9,30.14,SW,217,14.0,15.0,-999,-99.99,,,-99.99,,2013-04-09 01:22:00,
2013-04-08 21:34:00,62.0,-99.9,30.14,SW,214,15.0,15.0,-999,-99.99,,,-99.99,,2013-04-09 01:34:00,
2013-04-08 21:42:00,61.0,-99.9,30.15,SSW,211,14.0,14.0,-999,-99.99,,,-99.99,,2013-04-09 01:42:00,
2013-04-08 21:53:00,61.0,-99.9,30.15,SSW,213,13.0,14.0,-999,-99.99,,,-99.99,,2013-04-09 01:53:00,
2013-04-08 22:02:00,61.0,-99.9,30.15,SSW,209,13.0,13.0,-999,-99.99,,,-99.99,,2013-04-09 02:02:00,
2013-04-08 22:13:00,60.0,-99.9,30.15,SSW,208,12.0,13.0,-999,-99.99,,,-99.99,,2013-04-09 02:13:00,
2013-04-08 22:22:00,60.0,-99.9,30.15,SSW,213,12.0,13.0,-999,-99.99,,,-99.99,,2013-04-09 02:22:00,
2013-04-08 22:33:00,60.0,-99.9,30.16,SSW,213,12.0,13.0,-999,-99.99,,,-99.99,,2013-04-09 02:33:00,
2013-04-08 22:44:00,60.0,-99.9,30.16,SSW,213,12.0,12.0,-999,-99.99,,,-99.99,,2013-04-09 02:44:00,
2013-04-08 22:52:00,61.0,-99.9,30.16,SSW,210,12.0,12.0,-999,-99.99,,,-99.99,,2013-04-09 02:52:00,
2013-04-08 23:02:00,60.0,-99.9,30.16,SSW,210,11.0,12.0,-999,-99.99,,,-99.99,,2013-04-09 03:02:00,
2013-04-08 23:12:00,60.0,-99.9,30.16,SSW,207,11.0,11.0,-999,-99.99,,,-99.99,,2013-04-09 03:12:00,
2013-04-08 23:22:00,60.0,-99.9,30.16,SSW,207,10.0,10.0,-999,-99.99,,,-99.99,,2013-04-09 03:22:00,
2013-04-08 23:33:00,60.0,-99.9,30.16,SSW,207,9.0,9.0,-999,-99.99,,,-99.99,,2013-04-09 03:33:00,
2013-04-08 23:44:00,60.0,-99.9,30.16,SSW,206,9.0,9.0,-999,-99.99,,,-99.99,,2013-04-09 03:44:00,
2013-04-08 23:53:00,59.0,-99.9,30.15,SSW,200,9.0,9.0,-999,-99.99,,,-99.99,,2013-04-09 03:53:00,